Regional Weather Roundup
Issued by NWS Midland/Odessa, TX

Skip options and go directly to product.
Home | Oldest Version | Next Version | Current Version | All | Text Only | Save Text | Print | Product List | Glossary On

Skip product version selection by date and time.   
967
ASUS44 KMAF 131410
RWRMAF
MIDLAND AREA WEATHER ROUNDUP
NATIONAL WEATHER SERVICE MIDLAND TX
800 AM CST SAT FEB 13 2016

...IN SOUTHWEST TEXAS AND SOUTHEAST NEW MEXICO...

CITY           SKY/WX    TMP DP  RH WIND       PRES   REMARKS
ALPINE         CLOUDY    44  21  41 SW10      30.37R WCI  38
ANDREWS        FAIR      33  29  86 E5        30.31F WCI  29
ARTESIA        CLOUDY    32  23  69 W6        30.30S WCI  26
BIG SPRING     CLOUDY    36  29  76 N5        30.35S WCI  32
CARLSBAD       CLOUDY    30  23  75 W6        30.29R WCI  24
DRYDEN           N/A     49  38  65 N7        30.28S
FORT STOCKTON  CLOUDY    40  28  62 W7        30.29R WCI  35
GUAD PASS      CLOUDY    53  17  24 SW7       30.33R
HOBBS          CLEAR     36  28  75 CALM      30.32R
MARFA          CLOUDY    30  18  60 N8        30.35R WCI  22
MIDLAND AIRPK  CLOUDY    40  32  74 E5        30.33S WCI  36
MIDLAND INTL   CLOUDY    42  32  67 E6        30.31S WCI  38
ODESSA         CLOUDY    39  31  72 E9        30.31S WCI  33
PECOS          CLOUDY    33  27  79 NW5       30.29R WCI  29
PRESIDIO       FAIR      44  18  35 CALM      30.27S
SEMINOLE       CLOUDY    35  30  82 E6        30.32F WCI  30
SNYDER           N/A     34  31  90 N5        30.35S WCI  30
WINK           CLOUDY    33  28  81 N6        30.28R WCI  28
$$
...OTHER STATIONS IN TEXAS...

CITY           SKY/WX    TMP DP  RH WIND       PRES   REMARKS
ABILENE        CLEAR     38  33  82 CALM      30.35S
AMARILLO       CLOUDY    29  27  92 S13       30.30S FOG     WCI  19
AUSTIN         PTCLDY    50  40  68 NE6       30.34R
BROWNSVILLE    SUNNY     59  59 100 E5        30.31R
CORPUS CHRISTI PTCLDY    53  52  96 E6        30.31R FOG
DALLAS FTW     PTCLDY    41  31  67 NE8       30.40R WCI  36
DEL RIO        CLEAR     47  39  74 CALM      30.29R
EL PASO        MOCLDY    40  15  36 N9        30.26S WCI  34
HOUSTON INT    PTSUNNY   55  49  80 E8        30.36R
LUBBOCK        CLOUDY    30  27  88 E5        30.32R WCI  25
SAN ANGELO     CLOUDY    34  28  79 CALM      30.34R
SAN ANTONIO    MOCLDY    49  42  77 CALM      30.34R
WACO           CLEAR     42  34  73 N6        30.38S WCI  38
WICHITA FALLS  NOT AVBL
$$
...OTHER LOCATIONS IN NEW MEXICO...

CITY           SKY/WX    TMP DP  RH WIND       PRES   REMARKS
ALAMAGORDO     CLOUDY    36  10  35 NE6       30.29R WCI  31
ALBUQUERQUE    CLOUDY    37  21  52 N7        30.31R WCI  32
CANNON AFB     CLOUDY    33  31  94 SW3       30.30S
CLOVIS         CLOUDY    28  23  80 SW7       30.31S WCI  21
HOLLOMAN AFB   PTCLDY    31   8  38 W2        30.28R
ROSWELL        CLOUDY    30  21  69 CALM      30.29R
RUIDOSO          N/A     43   9  24 W8        30.36S WCI  38
SANTA FE       CLOUDY    31  22  69 N13       30.31S WCI  21
TRUTH OR CONSE PTCLDY    40  11  30 NW8       30.29R WCI  34
TUCUMCARI      CLEAR     39  28  64 W13       30.25F WCI  31
$$

USA.gov is the U.S. government's official web portal to all federal, state and local government web resources and services.